TKSAT-1 (TUPAC KATARI)

Last updated on Sat Aug 15 2026 00:02:59 GMT+0000 (Coordinated Universal Time)

1 39481U 13075A 26226.55063600 .00000000 00000+0 00000+0 0 9992 2 39481 0.0216 110.6929 0002444 20.9443 302.3772 1.00268137 46181
UTC large
Height (km)
Speed (km/s)
/
Latitude / Longitude
Inclination (degrees)
Orbital Period (minutes)
Azimuth
Elevation
Range (km)
Doppler Factor

Next 0 passes for location: London (51.5072 / 0.1276)

No passes found over London.
TKSAT-1 (TUPAC KATARI)